Regional Weather Roundup
Issued by NWS San Diego, CA

Home | Current Version | Previous Version | Text Only | Print | Product List | Glossary On
Versions: 1 2 3 4 5 6 7 8 9 10 11 12 13 14 15 16 17 18 19 20 21 22 23 24 25 26 27 28 29 30 31 32 33 34 35 36 37 38 39 40 41 42 43 44 45 46 47 48 49 50
885
ASUS46 KSGX 231811
RWRSGX

SAN DIEGO HOURLY WEATHER ROUNDUP
NATIONAL WEATHER SERVICE SAN DIEGO CA
1000 AM PST MON JAN 23 2017

NOTE: "FAIR" INDICATES FEW OR NO CLOUDS BELOW 12,000 FEET WITH NO
SIGNIFICANT WEATHER AND/OR OBSTRUCTIONS TO VISIBILITY.

CAZ042-043-060-061-PZZ750-775-231900-

GREATER SAN DIEGO AREA

CITY           SKY/WX    TMP DP  RH WIND       PRES   REMARKS
SAN DIEGO AP   CLOUDY    57  47  69 SW9       29.99S
NATIONAL CITY    N/A     53  49  87 SW3       30.00R
CHULA VISTA      N/A     51  49  92 W3        29.91R
IMPERIAL BEACH LGT RAIN  54  48  80 W22G32    30.00R FOG
BROWN FIELD    RAIN      52  47  83 CALM      29.98R
MIRAMAR MCAS   PTSUNNY   58  49  72 SW10      29.97R
MONTGOMERY FLD PTSUNNY   53  46  77 SW9       29.97S

$$

NORTH SAN DIEGO COUNTY

CITY           SKY/WX    TMP DP  RH WIND       PRES   REMARKS
CAMP PENDLETON PTSUNNY   57  41  55 SW16G22   29.96R
OCEANSIDE AP   MOSUNNY   59  45  59 SW16      29.95R
OCEANSIDE HBR    N/A     58  46  63 SW7       29.98R
VISTA            N/A     54  49  82 SW3       29.94R
CARLSBAD       PTSUNNY   56  48  74 SW13      29.95R
DEL MAR          N/A     56  52  86 NW2       29.99R
LA JOLLA SCRIP   N/A     56  51  84 S6        29.97R
FALLBROOK        N/A     52  52 100 SW3       29.94S
ESCONDIDO        N/A     55  50  83 SW6       29.98S
SAN MARCOS       N/A     54  47  78 SW8       29.98S
POWAY            N/A     51  49  92 CALM      30.00S

$$

EAST SAN DIEGO COUNTY

CITY           SKY/WX    TMP DP  RH WIND       PRES   REMARKS
RAMONA         RAIN      49  47  93 W14       29.95R
SANTEE LAKES     N/A     52  48  88 SW3       29.97S
LA MESA          N/A     49  47  92 CALM      29.93R
JAMUL            N/A     46  45  95 CALM      29.98R
DESCANSO N       N/A     38  37  97 SW9       29.90S WCI  31
CAMPO            N/A     45  43  93 SW21G28   29.90R

$$

ORANGE COUNTY AND THE LOS ANGELES BASIN

CITY           SKY/WX    TMP DP  RH WIND       PRES   REMARKS
JOHN WAYNE AP  PTSUNNY   53  46  77 S5        29.94R
LAGUNA BEACH     N/A     56  48  74 W3        29.89R
LAKE FOREST FR   N/A     46  44  91 NW2       29.84R
HUNTINGTON BCH   N/A     54  50  86 W10       29.94R
LOS ALAMITOS   PTSUNNY   55  49  80 SW15      29.92R
FULLERTON      PTSUNNY   53  46  77 S5        29.92R
LONG BEACH     MOSUNNY   55  45  68 SW7       29.92R
L.A. AP        PTSUNNY   55  46  71 W20       29.92R
L.A. DOWNTOWN  CLOUDY    56  45  66 W8G16     29.91R

$$

THE INLAND EMPIRE

CITY           SKY/WX    TMP DP  RH WIND       PRES   REMARKS
CORONA         PTSUNNY   48  45  87 NW7       29.93R
CHINO          CLOUDY    51  46  83 SW3       29.93R
ONTARIO        PTSUNNY   47  44  90 W5        29.92R
SAN BERNARDINO HVY RAIN  46  41  81 W7        29.94R
RIVERSIDE AP   CLOUDY    46  43  87 W7          N/A
MORENO VALLEY    N/A     45  44  99 W2        28.04R
MARCH ARB      LGT RAIN  45  45 100 W9        29.92R
HORSETHIEF CYN   N/A     50  37  62 NW8       29.94R
PERRIS           N/A     46  45  96 S5        29.98S
HEMET EAST       N/A     43  39  85 CALM      30.00R
FRENCH VALLEY  NOT AVBL
TEMECULA         N/A     50  49  97 S10       29.98R

$$

SAN BERNARDINO AND RIVERSIDE COUNTY MOUNTAINS

CITY           SKY/WX    TMP DP  RH WIND       PRES   REMARKS
BIG BEAR AP    SNOW      27  23  86 SW9G23    29.77S VSB 1/2 WCI  17
ANGELUS OAKS     N/A     29  27  92 SW3       29.80F
PINE COVE        N/A     28  28  99 CALM      29.92R

$$

SOUTHERN DESERT INCLUDING THE COACHELLA VALLEY

CITY           SKY/WX    TMP DP  RH WIND       PRES   REMARKS
PALM SPRINGS   RAIN      50  44  80 CALM      29.92R
PALM DESERT      N/A     56  46  68 CALM        N/A
THERMAL        MOSUNNY   60  42  51 N9        29.89R
BLYTHE         SUNNY     61  43  51 SW17G28   29.89R
IMPERIAL AP    SUNNY     61  43  51 SW17G25   29.90R
EL CENTRO NAS  MOSUNNY   62  42  47 SW20      29.93S
YUMA AZ        MOSUNNY   63  50  62 NW5       29.92S
MEXICALI       MOSUNNY   61  39  44 W10       29.92S

$$

UPPER DESERT

CITY           SKY/WX    TMP DP  RH WIND       PRES   REMARKS
VICTORVILLE AP PTSUNNY   43  34  70 S9        29.83F
HESPERIA         N/A     36  35  96 W3        30.02R
PALMDALE       LGT RAIN  41  37  86 W18       29.85R
LANCASTER      RAIN      38  35  89 SW23G31   29.86R FOG     WCI  27
EDWARDS AFB    LGT RAIN  43  36  75 SW22G28   29.83R
DAGGETT        PTSUNNY   47  38  71 W17       29.85S
29 PALMS N     MOSUNNY   49  35  58 SW17      29.93S
NEEDLES        PTSUNNY   61  40  45 SW17G24   29.85R

$$

REGIONAL REPORTS

CITY           SKY/WX    TMP DP  RH WIND       PRES   REMARKS
SANTA BARBARA  LGT RAIN  48  46  93 NW15G22   29.92R
SANDBERG       FOG       34  32  92 SW6       29.81R VSB 1/4 WCI  29
LAS VEGAS NV   PTSUNNY   49  30  48 SW14G26   29.77R
PHOENIX AZ     CLOUDY    57  38  48 SE6       29.90F
TIJUANA        HVY RAIN  52  45  76 NW18      30.01
ENSENADA NW      N/A     60  32  34 SW7       30.00S

$$

OFFSHORE ISLANDS

CITY           SKY/WX    TMP DP  RH WIND       PRES   REMARKS
CATALINA ARPT  LGT RAIN  46  43  89 SW14      29.92R
SAN CLEMENTE I MOSUNNY   54  48  80 W15       29.96R
SAN NICOLAS IS RAIN      47  46  97 W15       29.93R

$$

MARINE AND OFFSHORE BUOY REPORTS

STATION/POSITION SKY/WX   TEMP    WIND        PRES    VSBY  SWELL
                          AIR SEA DIR/SP/G                  HT/PER/DIR
                          (F)     (DEG/KT/KT) (MB)    (MI)  (FT/S/D)
TANNER BANKS               57 58  250/ 21/ 25 1013.5         13/290/14
S CLEMENTE BASIN           57 60  240/ 17/ 21 1014.1         10/280/14
SAN NICOLAS IS.               57                N/A          10/290/13
SO. S. ROSA ISLA           51 56  240/ 14/ 17 1011.9         13/280/15
W. S. BARBARA CH           52 57  330/ 12/ 19 1012.1         15/280/14
M. S. BARBARA CH                  300/ 19/ 23 1013.5R
S. MONICA BASIN            55 58  250/ 17/ 21 1012.8R         7/270/12
S PEDRO CHANNEL               59                N/A           7/270/14
CMP PENDLETON NS              58                N/A           3/260/11
OCEANSIDE OFFSHR              59                N/A           3/250/14
TORREY PINES OTR              59                N/A           5/280/13
POINT LOMA SOUTH              60                N/A           7/280/13

$$





USA.gov is the U.S. government's official web portal to all federal, state and local government web resources and services.